Regional Weather Roundup
Issued by NWS Jackson, KY

Home | Current Version | Previous Version | Graphics & Text | Print | Product List | Glossary On
Versions: 1 2 3 4 5 6 7 8 9 10 11 12 13 14 15 16 17 18 19 20 21 22 23 24 25 26 27 28 29 30 31 32 33 34 35 36 37 38 39 40 41 42 43 44 45 46 47 48 49 50
000
ASUS43 KJKL 270110
RWRJKL

EAST KENTUCKY HOURLY WEATHER ROUNDUP
NATIONAL WEATHER SERVICE JACKSON KY
800 PM EST THU FEB 26 2015

NOTE: "FAIR" INDICATES FEW OR NO CLOUDS BELOW 12,000 FEET WITH
NO SIGNIFICANT WEATHER AND/OR OBSTRUCTIONS TO VISIBILITY.

* THESE REPORTS ARE NOT UNDER NWS QUALITY CONTROL AND MAY NOT
  REPORT WEATHER SUCH AS PRECIPITATION AND FOG.

KYZ079-080-083-085-087-088-110-112-115-119-120-270200
...EASTERN KENTUCKY...

CITY           SKY/WX    TMP DP  RH WIND       PRES   REMARKS
JACKSON        CLOUDY    29  14  53 NW7       30.11R WCI  22
LONDON         CLOUDY    33  15  47 NW5       30.12R WCI  29
SOMERSET*      CLOUDY    32  19  59 N7        30.16R WCI  26
MONTICELLO*    CLOUDY    33  21  61 N10       30.18R WCI  25
MIDDLESBORO*   PTCLDY    29  24  84 CALM      30.11R
HAZARD APT*    CLOUDY    32  18  55 N8        30.11R WCI  25
PIKEVILLE APT* CLOUDY    30  16  55 NW13      30.09R WCI  20
BIG SANDY*     CLOUDY    32  17  55 NW8       30.11R WCI  25
MOREHEAD APT*  CLOUDY    23  14  68 N8G17     30.19R WCI  14
$$

KYZ035-036-041-042-044-050-067-078-099-270200
...CENTRAL KENTUCKY...

CITY           SKY/WX    TMP DP  RH WIND       PRES   REMARKS
MT STERLING*   FLURRIES  27  19  74 N7        30.19R WCI  19
FLEMING/MASON* LGT SNOW  19  14  79 N10       30.21R WCI   8
DANVILLE*      FLURRIES  27  21  80 N12       30.19R WCI  16
RICHMOND*      CLOUDY    28  18  64 NW13      30.16R WCI  18
LEXINGTON      LGT SNOW  23  16  74 N14       30.20R WCI  11
FRANKFORT      LGT SNOW  22  16  78 N8        30.21R WCI  12
$$

KYZ091>093-OHZ055-061-077-WVZ005-015-034-035-042-270200
...SOUTHERN OHIO/WEST VIRGINIA...

CITY           SKY/WX    TMP DP  RH WIND       PRES   REMARKS
COVINGTON      FLURRIES  16   9  74 N14       30.24R WCI   2
COLUMBUS       FLURRIES  13   6  74 N14       30.23R WCI  -2
DAYTON         CLOUDY    13   6  74 N6        30.26R WCI   4
WILMINGTON     LGT SNOW  13   6  74 N9        30.22R WCI   1
HUNTINGTON     CLOUDY    25  15  66 NW12      30.15R WCI  14
CHARLESTON     CLOUDY    30  14  51 N5        30.11R WCI  25
PINEVILLE*     CLOUDY    30  29  96 MISG      30.09R
BECKLEY        CLOUDY    26  19  74 NW3       30.00R
BLUEFIELD      CLOUDY    28  22  78 W3        30.00R
$$

VAZ002-007-008-TNZ017-027-036-066-071-270200
...SOUTHWEST VIRGINIA/EAST TENNESSEE...

CITY           SKY/WX    TMP DP  RH WIND       PRES   REMARKS
WISE*          CLOUDY    28  21  74 SW5       30.02S WCI  23
JONESVILLE*    MOCLDY    28  27  93 CALM      30.10R
ABINGDON*      CLOUDY    34  28  77 W3        30.05R
BRISTOL        CLOUDY    32  30  92 SW5       30.08R WCI  27
KNOXVILLE      MOCLDY    34  30  85 S3        30.11R
OAK RIDGE      MOCLDY    34  30  85 CALM      30.13R
CROSSVILLE     CLOUDY    34  18  52 NW5       30.10R WCI  30
NASHVILLE      CLOUDY    32  21  64 NW14G21   30.24R WCI  22
$$

...KEY TO REMARKS...
VSB - VISIBILITY IN MILES
WCI - WIND CHILL INDEX
HX  - HEAT INDEX

$$



USA.gov is the U.S. government's official web portal to all federal, state and local government web resources and services.